Date,TemperatureHighF,TemperatureAvgF,TemperatureLowF,DewpointHighF,DewpointAvgF,DewpointLowF,HumidityHigh,HumidityAvg,HumidityLow,PressureMaxIn,PressureMinIn,WindSpeedMaxMPH,WindSpeedAvgMPH,GustSpeedMaxMPH,PrecipitationSumIn
2013-2-1,66.2,55.0,40.8,45.1,35.7,21.8,70,49,32,30.36,30.19,16,7,22,0.00
2013-2-2,72.4,58.3,48.2,54.8,47.8,40.3,93,70,43,30.31,30.17,14,6,20,0.00
2013-2-3,67.2,57.0,47.2,51.6,40.7,26.1,82,56,28,30.35,30.01,14,5,20,0.00
2013-2-4,70.9,61.2,55.2,58.7,54.4,50.7,95,79,57,30.01,29.82,15,8,22,0.00
2013-2-5,77.1,63.1,50.9,52.5,45.2,38.8,82,54,29,30.00,29.87,7,3,18,0.00
2013-2-6,71.9,61.8,57.2,59.6,55.9,48.5,95,82,63,29.98,29.82,12,8,18,0.00
2013-2-7,79.3,64.1,55.2,61.2,51.6,36.5,99,70,27,30.08,29.87,14,7,22,0.01
2013-2-8,65.9,54.1,41.9,45.4,34.6,26.6,84,52,24,30.23,30.07,16,6,24,0.00
2013-2-9,64.7,55.3,47.6,64.7,52.3,30.6,100,91,45,30.11,29.80,17,11,23,0.00
2013-2-10,65.4,58.7,48.8,65.4,40.2,26.5,100,56,28,30.02,29.76,17,6,23,0.01
2013-2-11,57.9,52.2,47.2,46.5,41.0,32.4,97,67,41,30.09,29.98,8,3,14,0.00
2013-2-12,68.3,54.7,41.4,54.2,41.9,22.1,99,70,23,30.08,29.86,13,5,21,0.02
2013-2-13,58.8,45.8,33.2,35.5,31.0,26.2,90,60,30,30.18,30.06,10,5,17,0.00
2013-2-14,67.7,53.4,40.2,39.1,35.5,31.1,79,54,29,30.17,30.02,11,7,16,0.00
2013-2-15,57.2,47.7,35.5,40.9,35.8,23.0,84,64,49,30.42,30.09,12,7,18,0.00
2013-2-16,63.8,46.7,30.8,29.1,25.3,21.5,70,46,23,30.51,30.26,9,3,11,0.00
2013-2-17,65.4,54.6,44.1,51.3,36.8,24.8,83,52,37,30.26,29.96,23,14,37,0.00
2013-2-18,77.6,63.0,51.8,58.5,43.6,16.5,92,58,11,30.08,29.85,24,12,37,0.00
2013-2-19,64.7,53.8,43.0,32.6,29.5,23.8,59,41,22,30.27,30.05,12,6,28,0.00
2013-2-20,63.0,54.1,48.9,62.7,47.4,24.3,99,82,33,30.12,29.65,19,10,33,0.01
2013-2-21,72.5,63.3,50.5,63.7,38.3,16.2,100,50,13,29.86,29.58,19,9,29,0.00
2013-2-22,58.3,48.3,39.0,37.4,32.1,23.5,89,56,31,30.06,29.86,13,6,18,0.00
2013-2-23,69.9,51.3,33.5,38.3,30.7,25.6,79,50,20,30.11,29.91,8,4,15,0.00
2013-2-24,68.0,54.0,44.5,57.8,46.9,35.6,95,77,51,29.94,29.58,17,10,23,0.00
2013-2-25,60.2,55.4,50.4,59.1,42.8,21.6,98,67,29,29.72,29.56,16,10,29,0.00
2013-2-26,65.9,54.7,36.0,29.1,25.7,22.0,69,34,21,30.01,29.88,8,5,16,0.00
2013-2-27,58.2,49.9,38.5,33.8,25.9,19.4,64,40,28,30.27,29.90,15,8,23,0.00
2013-2-28,57.9,45.4,36.3,30.1,24.8,19.4,69,46,26,30.38,30.24,11,4,17,0.00